DW0226 Weather Reports


Display with metric or nautical units.
time (UTC)temp
F
wind
direction
speed
MPH
gust
MPH
rain 1hr
in
rain 24hr
in
rain mn
in
humidity
%
barometer
mb
20260903162016 85 270 2.0 5.0 0.00 0.04 0.00 81 1015.7
20260903161016 86 293 3.0 6.0 0.00 0.04 0.00 82 1015.8
20260903160016 85 248 1.0 3.0 0.00 0.04 0.00 83 1016.0
20260903155016 85 248 2.0 4.0 0.00 0.04 0.00 83 1015.9
20260903154016 84 225 3.0 5.0 0.00 0.04 0.00 85 1015.9
20260903153016 83 270 2.0 6.0 0.00 0.04 0.00 86 1015.8
20260903152016 83 270 3.0 6.0 0.00 0.04 0.00 87 1015.8
20260903151016 84 248 1.0 5.0 0.00 0.04 0.00 85 1015.8
20260903150016 84 203 1.0 4.0 0.00 0.04 0.00 86 1015.5
20260903145058 84 225 3.0 9.0 0.00 0.04 0.00 85 1015.3
20260903144016 84 158 3.0 5.0 0.00 0.04 0.00 84 1015.4
20260903143016 84 90 2.0 5.0 0.00 0.04 0.00 87 1015.6
20260903142016 82 90 2.0 5.0 0.00 0.04 0.00 88 1015.7
20260903141016 81 90 3.0 6.0 0.00 0.04 0.00 89 1015.7
20260903140016 80 90 2.0 4.0 0.00 0.04 0.00 91 1015.9
20260903135016 80 0.0 3.0 0.00 0.04 0.00 91 1015.8
20260903134017 80 68 1.0 3.0 0.00 0.04 0.00 91 1015.9
20260903133016 80 0.0 3.0 0.00 0.04 0.00 92 1016.0
20260903132016 80 0.0 4.0 0.00 0.04 0.00 93 1016.3
20260903131036 80 0.0 1.0 0.00 0.04 0.00 95 1016.4
20260903130017 79 0.0 2.0 0.00 0.04 0.00 96 1016.6
20260903125017 79 0.0 0.0 0.00 0.04 0.00 97 1016.7
20260903124018 78 0.0 2.0 0.00 0.04 0.00 97 1016.2
20260903123036 78 0.0 0.0 0.00 0.04 0.00 98 1016.3
20260903122016 77 0.0 2.0 0.00 0.04 0.00 98 1016.1
20260903121016 76 0.0 0.0 0.00 0.04 0.00 99 1016.0
20260903120017 75 0.0 0.0 0.00 0.04 0.00 99 1015.9
20260903115017 74 0.0 0.0 0.00 0.04 0.00 99 1016.0
20260903114017 73 0.0 0.0 0.00 0.04 0.00 98 1015.9
20260903113039 73 0.0 0.0 0.00 0.04 0.00 98 1015.8
20260903112017 72 0.0 0.0 0.00 0.04 0.00 98 1015.7
20260903111037 72 0.0 0.0 0.00 0.04 0.00 98 1015.6
20260903110016 71 0.0 1.0 0.00 0.04 0.00 98 1015.5
20260903105037 71 0.0 0.0 0.00 0.04 0.00 98 1015.4
20260903104016 71 0.0 0.0 0.00 0.04 0.00 97 1015.5
20260903103016 71 0.0 0.0 0.00 0.04 0.00 97 1015.1
20260903102016 71 0.0 0.0 0.00 0.04 0.00 97 1015.2
20260903101016 71 0.0 0.0 0.00 0.04 0.00 97 1015.3
20260903100016 71 0.0 0.0 0.00 0.04 0.00 97 1015.3
20260903095118 71 0.0 0.0 0.00 0.04 0.00 97 1015.0
20260903094516 71 0.0 0.0 0.00 0.04 0.00 97 1014.9
20260903093516 71 0.0 0.0 0.00 0.04 0.00 97 1015.1
20260903092516 71 0.0 0.0 0.00 0.04 0.00 97 1015.1
20260903091516 71 0.0 0.0 0.00 0.04 0.00 97 1014.9
20260903090536 71 0.0 0.0 0.00 0.04 0.00 97 1014.8
20260903085516 72 0.0 0.0 0.00 0.04 0.00 97 1014.7
20260903084537 71 0.0 0.0 0.00 0.04 0.00 97 1015.1
20260903083516 71 0.0 0.0 0.00 0.04 0.00 97 1015.3
20260903082516 71 0.0 0.0 0.00 0.04 0.00 97 1015.3
20260903081523 71 0.0 0.0 0.00 0.04 0.00 97 1015.2
20260903080516 72 0.0 0.0 0.00 0.04 0.00 97 1015.1
20260903075517 72 0.0 0.0 0.00 0.04 0.00 97 1015.0
20260903074516 72 0.0 0.0 0.00 0.04 0.00 97 1015.1
20260903073516 72 0.0 0.0 0.00 0.04 0.00 97 1014.8
20260903072516 72 0.0 0.0 0.00 0.04 0.00 97 1014.9
20260903071516 72 0.0 0.0 0.00 0.04 0.00 97 1015.0
20260903070537 72 0.0 0.0 0.00 0.04 0.00 97 1014.9
20260903065516 71 0.0 0.0 0.00 0.04 0.00 97 1014.9
20260903064516 71 0.0 0.0 0.00 0.04 0.00 97 1014.9
20260903063516 71 0.0 0.0 0.00 0.04 0.00 97 1015.0
20260903062536 71 0.0 0.0 0.00 0.04 0.00 97 1015.3
20260903061516 71 0.0 0.0 0.00 0.04 0.00 97 1015.5
20260903060516 71 0.0 0.0 0.00 0.04 0.00 97 1015.5
20260903055516 71 0.0 0.0 0.00 0.04 0.00 97 1015.7
20260903054557 71 0.0 0.0 0.00 0.04 0.00 97 1015.7
20260903053516 71 0.0 0.0 0.00 0.04 0.00 97 1015.8
20260903053016 71 0.0 0.0 0.00 0.04 0.00 97 1015.8
20260903052016 71 0.0 0.0 0.00 0.04 0.00 97 1015.7
20260903051017 71 0.0 0.0 0.00 0.04 0.00 96 1015.8
20260903050036 71 0.0 0.0 0.00 0.04 0.00 96 1015.9
20260903045037 71 0.0 0.0 0.00 0.04 0.00 96 1015.9
20260903044016 71 0.0 0.0 0.00 0.04 0.00 96 1015.8
20260903043017 71 0.0 0.0 0.00 0.04 0.00 96 1015.8
20260903042039 72 0.0 0.0 0.00 0.04 0.00 96 1015.9
20260903041016 72 0.0 0.0 0.00 0.04 0.00 96 1015.8
20260903040016 72 0.0 2.0 0.00 0.04 0.04 96 1015.8
20260903035017 72 0.0 2.0 0.00 0.04 0.04 96 1015.8
20260903034017 72 0.0 1.0 0.00 0.04 0.04 96 1015.7
20260903033017 71 0.0 0.0 0.00 0.04 0.04 96 1015.5
20260903032018 71 0.0 0.0 0.00 0.04 0.04 96 1015.5
20260903031018 71 0.0 0.0 0.00 0.04 0.04 96 1015.4
20260903030018 71 0.0 0.0 0.00 0.04 0.04 96 1015.5
20260903025017 71 0.0 0.0 0.00 0.04 0.04 95 1015.5
20260903024017 72 0.0 0.0 0.00 0.04 0.04 96 1015.6
20260903023017 72 0.0 0.0 0.00 0.04 0.04 96 1015.6
20260903022017 72 0.0 0.0 0.00 0.04 0.04 96 1015.6
20260903021017 72 0.0 0.0 0.00 0.04 0.04 96 1015.8
20260903020017 72 0.0 1.0 0.00 0.04 0.04 95 1015.9
20260903015017 72 0.0 0.0 0.00 0.04 0.04 95 1016.0
20260903014016 72 0.0 1.0 0.00 0.04 0.04 95 1016.0
20260903013016 72 0.0 1.0 0.00 0.04 0.04 95 1016.0
20260903012018 73 0.0 1.0 0.00 0.04 0.04 95 1015.9
20260903011057 73 0.0 0.0 0.00 0.04 0.04 95 1015.8
20260903010016 73 0.0 0.0 0.00 0.04 0.04 95 1015.9
20260903005016 73 0.0 0.0 0.00 0.04 0.04 95 1015.7
20260903004019 73 0.0 2.0 0.00 0.04 0.04 95 1015.8
20260903003017 73 0.0 0.0 0.00 0.04 0.04 95 1015.6
20260903002016 73 0.0 0.0 0.00 0.04 0.04 94 1015.5
20260903001017 73 0.0 0.0 0.00 0.04 0.04 94 1015.4
20260903000017 74 0.0 0.0 0.00 0.04 0.04 94 1015.3
20260902235017 74 0.0 0.0 0.00 0.04 0.04 94 1015.1
20260902234049 74 0.0 0.0 0.00 0.04 0.04 94 1015.3
20260902233017 74 0.0 0.0 0.00 0.04 0.04 94 1015.5
20260902232017 75 0.0 0.0 0.00 0.04 0.04 94 1015.6
20260902231018 75 0.0 0.0 0.00 0.04 0.04 94 1015.6
20260902230017 75 0.0 0.0 0.00 0.04 0.04 94 1015.6
20260902225017 75 0.0 1.0 0.00 0.04 0.04 93 1016.0
20260902224017 75 0.0 0.0 0.00 0.04 0.04 93 1015.9
20260902223016 75 0.0 1.0 0.00 0.04 0.04 93 1015.8
20260902222018 75 0.0 0.0 0.00 0.04 0.04 93 1015.4
20260902221037 76 90 1.0 4.0 0.00 0.04 0.04 93 1015.4
20260902220017 76 0.0 1.0 0.00 0.04 0.04 92 1016.2
20260902215016 76 0.0 2.0 0.00 0.04 0.04 93 1016.3
20260902214017 76 90 2.0 5.0 0.00 0.04 0.04 92 1015.3
20260902213028 76 0.0 3.0 0.00 0.04 0.04 93 1015.8
20260902212018 77 68 1.0 3.0 0.00 0.04 0.04 93 1016.4
20260902211017 77 0.0 0.0 0.00 0.04 0.04 93 1016.6
20260902210017 77 0.0 1.0 0.00 0.04 0.04 93 1016.3
20260902205017 76 90 1.0 3.0 0.00 0.04 0.04 93 1015.9
20260902204018 76 90 1.0 3.0 0.00 0.04 0.04 93 1016.0
20260902203017 76 0.0 1.0 0.00 0.04 0.04 93 1016.7
20260902202016 76 0.0 0.0 0.00 0.04 0.04 93 1016.8
20260902201016 76 0.0 0.0 0.01 0.04 0.04 92 1017.0
20260902200017 76 0.0 1.0 0.02 0.04 0.04 92 1017.0
20260902195017 77 0.0 0.0 0.04 0.04 0.04 91 1016.7
20260902194017 77 0.0 0.0 0.04 0.04 0.04 91 1016.7
20260902193038 77 0.0 2.0 0.04 0.04 0.04 90 1016.9
20260902192038 78 135 1.0 2.0 0.04 0.04 0.04 87 1016.7
20260902191057 80 90 3.0 7.0 0.03 0.03 0.03 81 1016.5
20260902190018 84 45 1.0 7.0 0.02 0.02 0.02 77 1017.9
20260902185017 87 45 2.0 9.0 0.00 0.00 0.00 76 1017.4
20260902184017 87 68 3.0 7.0 0.00 0.00 0.00 78 1017.3
20260902183057 87 90 3.0 7.0 0.00 0.00 0.00 77 1017.3
20260902182038 88 113 3.0 5.0 0.00 0.00 0.00 78 1017.1
20260902181018 88 90 3.0 6.0 0.00 0.00 0.00 77 1017.2
20260902180018 87 90 3.0 7.0 0.00 0.00 0.00 78 1017.0
20260902175017 87 90 3.0 7.0 0.00 0.00 0.00 78 1017.0
20260902174018 87 135 3.0 6.0 0.00 0.00 0.00 79 1016.9
20260902173017 87 90 3.0 6.0 0.00 0.00 0.00 79 1016.8
20260902172017 87 90 3.0 11.0 0.00 0.00 0.00 79 1017.0
20260902171017 87 113 1.0 4.0 0.00 0.00 0.00 79 1017.0
20260902170038 87 158 2.0 6.0 0.00 0.00 0.00 79 1016.6
20260902165120 86 113 3.0 5.0 0.00 0.00 0.00 79 1016.6
20260902164017 86 158 3.0 7.0 0.00 0.00 0.00 80 1016.5
20260902163018 86 113 4.0 7.0 0.00 0.00 0.00 79 1016.5
20260902162037 86 90 4.0 8.0 0.00 0.00 0.00 78 1016.5